Погода в Кватчах

Россия / Удмуртская Республика     56°23′51″N   52°23′04″E
темп.,
°C
ветер,
м/с
пор.,
м/с
влажн.,
%
обл.,
%
осадки,
мм/ч
давл.,
гПа
погр.,
м
1 июля, пт
пт101:00+8ссв3794100 0.0 1010374
04:00+6с3798100 0.0 1011250
07:00+9ссв3591100 0.0 1012342
10:00+13всв347139 0.0 1013834
13:00+18всв34550 0.0 10141307
16:00+18всв566613 0.8 10141313
19:00+17св48819 1.0 1014663
22:00+12св399312 1.5 1016182
2 июля, сб
сб201:00+9св388744 0.0 1016138
04:00+8ссв2386100 0.0 101650
07:00+13ссв357664 0.0 1016173
10:00+18ссв345999 0.0 1015697
13:00+21ссв234782 0.0 10141695
16:00+21сз134687 0.0 10131784
19:00+19ю006886 0.0 101211
22:00+14с118230 0.0 101211
3 июля, вс
вс301:00+12в00864 0.0 101211
04:00+11св22921 0.0 101224
07:00+15св34785 0.0 1012239
10:00+19ссв336225 0.0 1012861
13:00+20с5460100 0.1 10121213
16:00+17ссв6875100 0.6 1012891
19:00+17ссв58660 0.0 10111185
22:00+12с23820 0.0 101248
4 июля, пн
пн401:00+10с310944 0.0 1012247
04:00+10ссв412945 0.0 1013355
07:00+13ссв511815 0.0 1013515
10:00+18св685778 0.0 10141196
13:00+20св584783 0.0 10141992
16:00+21всв464594 0.0 10131818
19:00+18зсз0169100 0.0 101339
22:00+16з1171100 0.0 101411
5 июля, вт
вт501:00+14сз237597 0.0 101459
04:00+12сз3686100 0.0 101493
07:00+15ссз3870100 0.0 1015218
10:00+20ссз3555100 0.0 1015564
13:00+23ссз354398 0.0 10141648
16:00+25сз354246 0.0 10131871
19:00+23зсз256519 0.0 1013121
22:00+17зсз22815 0.0 101340